Погода в Нохе

Испания     43°28′44″N   3°31′48″W
темп.,
°C
ветер,
м/с
пор.,
м/с
влажн.,
%
обл.,
%
осадки,
мм/ч
давл.,
гПа
погр.,
м
14 апреля, ср
ср1423:00+12в596866 0.0 1023464
02:00+11в58746 0.0 1022438
05:00+11в68721 0.0 1022566
08:00+10в57715 0.0 1022469
11:00+12в67635 0.0 1023704
14:00+12всв78625 0.0 1023734
17:00+11всв675811 0.0 1022732
20:00+11всв56541 0.0 1022763
15 апреля, чт
чт1523:00+10вюв25690 0.0 1023288
02:00+10в69711 0.0 1022698
05:00+10в67670 0.0 1022676
08:00+9в57670 0.0 1022678
11:00+11в67590 0.0 1023861
14:00+11всв67580 0.0 1023956
17:00+11св56550 0.0 1022992
20:00+11св45545 0.0 10231016
16 апреля, пт
пт1623:00+9всв23617 0.0 1023929
02:00+9с136298 0.0 1023564
05:00+10ссв3461100 0.1 1022837
08:00+10ссв4659100 0.1 1023908
11:00+10ссв565862 0.2 10241409
14:00+11ссв55525 0.3 10251706
17:00+11ссв55524 0.0 10241483
20:00+10с45586 0.0 10251247
17 апреля, сб
сб1723:00+8с346121 0.0 1026982
02:00+9с346397 0.2 1024910
05:00+9ссв247067 0.8 1023847
08:00+8ссв347259 1.4 1024757
11:00+10св446317 0.4 10251304
14:00+11св43525 0.4 10251257
17:00+11св43550 0.0 1025911
20:00+10св23602 0.0 1025681
18 апреля, вс
вс1823:00+8вюв12675 0.0 1027524
02:00+6ю22782 0.0 1026124
05:00+6ю23755 0.0 102589
08:00+6ю23704 0.0 102599
11:00+11в35602 0.0 1025532
14:00+13всв566073 0.0 1023627
17:00+13всв67623 0.0 1022608
20:00+12в676798 0.0 1022453